CAPE
0 0 0 0 1 0 0 791 847 416 504 660 563 603 574 681 887 1136 1157 1157 894 695 843 526 787 831 818 774 764 565 392 297 276 261 248 443 870 1228 1620 1360 1432 1237 1085 1231 1084 928 746 782 880 824 711 617 436 732 1052 918 523 330 214 152 126 187 290 318 284 233 98 81 161 60 20 20 23 106 63 38 32 25 19 15 14 12 20 33 26
0 0 0 0 0 0 0 0 179 98 538 753 567 558 543 374 490 774 916 1238 1145 815 848 482 806 659 562 675 865 826 600 403 309 186 234 373 659 1223 1545 1599 1611 1290 1194 1087 1178 967 814 726 808 780 840 618 516 646 1114 691 501 366 262 235 145 170 318 286 288 198 78 22 39 7 14 17 33 107 90 33 28 23 19 12 9 7 23 32 34
0 0 0 0 7 5 0 0 0 45 647 835 595 813 180 356 382 454 607 968 1132 937 789 566 520 574 784 933 586 476 468 488 624 348 308 245 409 745 1087 1513 1651 1358 1176 1171 1072 1188 833 818 861 859 857 707 688 447 823 982 518 484 340 258 163 137 250 302 309 215 61 10 5 2 18 10 56 100 113 41 28 22 18 20 19 10 17 21 28
0 0 0 6 8 4 6 2 0 0 257 832 649 528 288 353 429 536 416 546 640 595 671 579 520 524 544 511 396 430 468 387 350 639 611 479 472 532 671 1061 1683 1542 1318 1275 1111 1045 1016 942 1297 1070 1071 925 723 592 545 959 419 525 400 279 175 168 274 313 298 165 50 7 6 6 13 11 28 40 66 52 36 26 22 22 19 8 8 14 11
0 0 4 7 4 3 4 2 0 0 3 203 580 696 342 438 409 420 547 292 366 380 382 461 601 643 418 402 442 309 287 391 500 503 651 786 623 494 416 650 1107 1552 1418 1396 1236 1075 1022 1173 1408 1197 1109 978 757 838 623 682 557 527 510 313 162 164 286 315 271 198 45 8 6 10 8 8 19 20 61 90 40 33 24 21 14 17 17 10 11
12 18 16 12 9 8 0 0 0 0 18 146 393 754 424 408 543 600 834 462 461 563 362 310 171 201 378 495 594 544 337 124 465 675 616 607 628 647 544 480 686 1074 1229 1241 1268 1283 984 898 1034 1020 1151 1095 931 767 492 566 584 764 484 353 247 202 293 253 334 192 32 5 3 15 13 8 11 20 42 58 22 34 30 21 17 14 17 9 7
21 18 17 11 12 8 0 0 0 0 13 12 0 0 18 10 404 683 434 402 502 742 402 279 188 130 342 403 502 504 340 468 546 689 758 686 671 669 628 628 616 726 1114 1222 1115 959 986 1049 832 678 988 1104 993 916 693 620 581 534 533 426 315 300 379 214 333 219 56 11 5 10 14 12 13 11 52 45 22 31 34 30 21 13 12 11 5
23 23 15 11 10 0 0 0 0 0 1 3 1 0 0 0 0 350 92 274 720 438 397 326 276 358 378 246 292 315 358 582 645 727 837 869 828 676 558 589 666 801 927 1122 811 978 1015 936 864 861 983 864 763 686 708 570 532 505 363 515 407 321 390 278 287 330 147 26 8 6 18 17 18 13 10 40 35 27 35 40 23 19 14 13 9
26 36 34 23 9 6 0 0 0 0 0 0 0 0 0 0 0 21 3 420 490 479 354 369 422 455 392 359 266 236 189 310 380 476 731 884 994 812 647 547 582 904 908 1062 965 718 514 819 739 704 943 790 639 716 720 885 815 571 959 682 472 431 381 225 296 381 310 27 12 7 10 38 36 22 13 15 45 20 32 45 31 26 24 15 7
28 50 33 146 13 13 15 0 0 0 0 0 0 0 0 0 0 0 0 32 266 314 134 203 423 415 319 286 334 29 7 244 418 596 684 642 758 765 801 720 612 638 785 886 903 787 572 773 736 480 827 759 597 518 637 684 647 531 482 449 539 484 483 303 321 435 333 47 25 16 9 43 86 23 21 21 13 8 15 31 40 37 23 19 10
26 45 104 31 19 20 22 1 3 4 0 0 0 0 0 0 0 0 0 10 33 48 18 71 354 338 192 345 287 339 320 313 415 572 510 590 529 1038 992 740 611 553 525 660 738 722 415 571 645 408 464 863 541 583 616 562 542 468 516 463 449 578 522 388 347 340 323 81 54 26 12 18 80 15 12 15 19 11 6 9 19 36 34 26 13
32 30 97 82 26 18 16 4 4 5 0 0 0 0 0 0 0 0 0 0 0 0 1 11 9 57 332 330 102 335 340 171 189 519 477 469 683 962 952 632 572 517 527 618 572 717 577 648 446 549 570 781 608 316 549 576 683 610 582 518 716 469 534 480 388 341 216 128 52 45 15 9 14 18 14 16 18 22 21 16 12 14 39 37 28
15 53 27 58 21 15 12 6 3 5 0 0 0 0 0 0 0 0 0 0 0 0 0 1 1 1 370 315 9 6 238 445 339 385 544 617 800 807 845 654 534 471 436 490 673 614 465 692 538 481 644 691 765 581 537 557 481 549 653 595 703 463 373 361 440 380 224 182 105 39 18 7 10 26 15 12 21 20 22 18 20 18 25 31 34
24 20 8 13 16 13 4 14 1 0 1 0 0 0 0 0 0 0 0 0 0 0 0 0 0 3 71 470 0 0 42 43 243 242 439 604 813 819 802 776 642 586 528 525 497 584 591 686 620 470 649 838 854 662 416 580 486 443 554 687 719 599 551 593 374 444 322 248 158 54 32 10 6 42 20 9 19 17 24 13 18 18 16 26 30
0 50 0 3 14 16 6 11 10 6 0 0 0 0 0 0 0 0 0 0 0 0 0 0 0 0 0 5 7 282 6 0 0 0 18 233 593 673 733 697 656 622 510 504 550 558 600 364 415 323 448 1030 778 735 694 504 461 482 503 583 659 610 530 521 430 478 433 358 246 113 55 29 5 37 79 10 21 11 18 15 12 16 12 26 28
0 2 0 0 1 16 17 14 1 5 0 0 0 0 0 0 0 0 0 0 0 0 0 0 0 0 0 6 122 58 0 0 0 0 0 0 526 657 596 687 651 761 612 551 528 545 622 389 385 275 365 497 594 748 607 499 476 481 487 550 642 526 557 515 422 456 408 494 445 231 93 82 36 21 143 21 13 16 16 16 13 14 16 14 25
0 0 10 0 1 1 5 12 11 2 0 0 0 0 0 0 0 0 0 0 0 0 0 0 10 190 9 22 24 0 2 45 2 0 0 39 29 604 618 796 398 499 728 654 568 595 608 355 416 346 242 505 758 681 702 566 472 431 420 444 620 530 559 536 732 587 310 369 602 413 200 141 124 98 85 114 6 12 29 29 14 11 14 15 18
0 0 11 4 0 0 0 1 10 5 1 0 0 0 0 0 0 0 0 0 0 0 0 0 0 0 26 218 217 57 35 71 5 7 0 0 1 63 645 146 0 93 505 612 570 510 464 377 323 396 391 191 553 618 511 602 571 445 358 375 527 443 576 694 646 616 472 430 223 537 412 249 181 150 143 150 30 6 16 19 17 14 11 16 17
0 0 0 6 0 0 0 3 15 10 27 0 0 0 0 0 0 0 0 0 0 0 0 0 0 0 0 2 8 420 290 131 43 41 1 2 0 0 2 0 0 10 83 430 525 484 516 448 476 388 174 359 403 503 536 558 483 409 397 321 546 528 614 537 519 487 507 520 409 546 647 543 273 175 203 149 76 28 12 4 9 48 16 12 11
0 0 0 8 1 0 0 6 16 28 12 0 0 0 0 0 2 0 0 0 0 0 0 0 0 0 0 1 3 7 24 192 239 93 44 16 0 0 0 0 0 0 16 110 330 460 466 437 594 596 485 457 506 501 539 575 545 437 437 453 401 433 586 631 531 445 612 511 540 547 679 677 547 320 283 282 290 193 97 62 33 48 50 13 8
0 0 0 9 100 0 0 0 6 14 27 0 0 0 0 0 0 0 0 0 0 0 0 0 0 0 0 2 6 8 4 20 26 4 82 40 0 0 0 0 0 0 0 3 112 389 512 578 577 623 679 666 552 502 464 499 489 504 498 433 500 414 357 527 584 597 717 598 580 579 743 707 703 576 423 384 378 349 204 127 130 94 107 56 30
0 0 0 0 0 0 0 0 1 21 17 0 0 0 0 0 0 0 0 0 0 0 0 0 0 0 0 1 4 3 5 6 4 2 1 83 12 0 0 0 10 0 0 0 0 195 622 683 671 642 639 652 682 648 560 604 635 569 550 702 638 542 537 538 577 710 609 662 667 727 548 828 787 667 558 470 422 477 331 226 172 168 127 110 95
0 0 0 0 0 1 0 0 13 119 5 0 0 0 0 0 0 1 0 0 0 0 0 0 0 0 0 0 0 0 2 2 2 2 1 9 1 0 0 0 0 0 0 0 0 30 449 716 710 669 684 675 670 741 678 616 689 645 533 738 935 734 752 770 701 611 550 588 697 629 721 740 833 789 646 611 518 798 706 368 253 184 160 117 88
0 0 0 0 1 0 4 0 0 0 0 0 0 0 0 0 0 0 0 0 0 2 0 0 0 0 0 0 0 0 0 0 0 0 0 2 1 0 0 0 0 0 0 0 0 9 326 749 696 656 598 594 592 575 634 666 593 668 624 588 844 794 771 762 835 849 773 667 598 458 575 826 732 872 860 857 704 615 522 434 349 265 175 168 135
0 0 0 0 0 0 0 0 0 0 0 0 0 0 0 0 0 0 0 0 3 5 8 6 6 6 0 0 0 0 0 0 0 0 0 0 0 0 0 0 0 0 0 0 0 0 756 758 895 837 709 674 577 531 520 646 718 647 636 683 605 718 919 851 878 846 814 741 618 666 720 686 980 790 712 870 894 916 738 545 379 370 255 203 231
0 0 0 0 0 0 0 0 0 0 0 0 0 0 0 0 0 0 0 0 0 0 3 8 10 12 18 2 0 5 0 0 0 2 0 0 0 0 0 0 0 0 0 0 0 0 0 102 202 364 571 853 884 780 569 449 649 742 780 822 899 853 726 708 671 854 824 760 612 595 789 749 904 808 806 880 820 845 717 633 458 280 325 296 290
0 0 0 0 0 0 0 0 0 0 0 1 4 0 0 0 0 0 5 0 0 0 0 4 5 8 20 15 13 1 5 2 0 0 0 0 0 0 0 0 0 0 0 0 0 0 0 17 139 213 197 255 572 536 371 346 441 505 511 711 720 746 809 750 921 1086 741 775 741 614 755 679 983 871 907 834 821 679 668 595 540 474 384 396 406
0 0 0 0 0 0 0 0 0 0 0 0 0 0 0 0 0 0 0 18 0 0 0 0 1 5 14 18 9 3 5 6 8 8 4 4 0 0 0 2 1 0 0 0 0 0 0 0 52 327 279 172 264 538 625 764 684 586 584 498 487 628 804 869 710 739 954 766 856 836 973 942 923 829 892 857 791 869 771 689 664 594 413 384 325
0 0 0 0 0 0 0 0 0 0 0 0 0 0 0 0 0 0 0 0 0 0 0 0 0 3 10 10 5 3 5 8 11 10 11 7 4 6 7 2 7 8 2 0 0 0 0 0 8 36 212 200 286 498 686 815 760 574 456 472 491 508 611 785 892 818 716 897 1007 892 882 898 929 790 732 807 983 994 794 724 621 544 501 459 362
0 0 0 0 0 0 0 0 0 0 0 0 0 0 0 0 0 0 0 0 0 0 1 1 0 0 9 6 0 3 2 9 8 5 5 6 11 11 8 1 9 5 10 6 0 0 0 0 11 0 4 12 107 254 524 628 627 535 451 601 671 666 660 740 880 935 844 652 606 585 621 901 818 652 722 879 991 807 730 709 664 653 694 631 493
0 23 0 0 0 0 0 0 0 0 0 0 0 0 0 0 0 0 0 0 0 0 0 0 3 3 1 0 1 0 3 7 4 5 7 9 14 21 30 34 34 42 22 12 0 2 0 0 0 0 0 0 0 44 210 374 511 541 492 560 701 724 736 811 919 965 940 694 542 535 517 432 582 662 795 811 892 774 715 704 606 604 709 544 475
245 0 0 0 0 0 0 0 0 0 0 0 0 0 0 0 0 0 0 0 0 0 0 0 0 4 5 3 4 0 0 5 6 3 21 22 23 24 22 23 30 38 36 28 14 8 5 8 1 0 0 0 0 4 71 147 409 624 691 656 677 762 741 744 766 776 736 728 716 746 762 685 652 666 625 757 873 791 795 708 649 573 572 570 539
373 254 19 0 0 0 0 0 0 0 0 0 0 0 0 0 0 0 0 0 0 0 0 0 0 0 1 1 3 0 0 5 7 10 30 26 16 13 16 18 18 27 28 29 27 20 0 12 0 0 0 0 0 0 3 17 59 175 342 480 627 712 720 703 647 537 548 570 647 702 748 779 676 652 737 771 642 618 626 649 546 616 591 494 538
397 324 253 0 0 0 0 0 0 0 0 0 0 0 0 0 0 0 0 0 0 0 0 0 0 0 0 0 0 0 0 0 1 5 30 15 9 7 7 12 13 16 25 18 22 23 11 0 0 3 0 0 0 0 0 0 2 169 329 431 462 557 647 691 606 279 196 341 539 593 609 731 682 574 641 681 623 565 590 583 529 509 543 586 565
285 292 297 3 0 0 0 0 0 0 0 0 0 0 0 0 0 0 0 0 0 0 0 0 0 0 0 0 0 0 0 0 0 3 30 21 10 4 10 12 14 15 21 18 6 7 7 0 0 0 0 0 0 0 0 0 61 292 492 532 492 427 356 290 360 411 449 514 565 595 711 797 835 849 823 833 805 705 668 618 622 682 609 675 672
270 264 282 4 0 0 0 0 0 0 0 0 0 0 0 0 0 0 0 0 0 0 0 0 0 0 0 0 0 0 0 0 0 0 16 14 1 3 11 12 17 17 22 14 4 2 0 0 0 0 0 0 0 0 3 0 7 95 244 212 202 210 224 233 248 234 227 238 286 386 472 506 544 527 550 625 705 752 669 598 510 700 726 647 791
150 312 255 0 0 0 0 0 0 0 0 0 0 0 0 0 0 0 0 0 0 0 0 0 0 0 0 0 0 0 0 3 0 0 8 16 1 0 4 12 28 27 22 6 2 1 1 2 0 0 0 0 0 0 30 2 0 6 16 94 143 145 137 160 166 165 166 138 131 132 135 165 233 354 416 505 487 514 633 745 650 693 619 590 618
404 270 0 0 0 0 0 0 0 0 0 0 0 0 0 0 0 0 0 0 0 0 0 0 0 0 0 0 0 0 0 9 10 2 1 13 1 0 0 3 18 25 14 4 1 2 0 0 0 0 0 0 0 0 0 1 2 0 0 0 24 70 100 118 136 168 152 144 146 138 127 133 145 158 196 251 341 397 447 588 730 751 666 679 729
424 0 0 0 0 0 0 0 0 0 0 0 0 0 0 0 0 0 0 0 0 0 0 0 0 0 0 0 0 0 0 2 1 3 12 14 6 0 0 1 11 11 1 0 0 0 1 0 0 0 0 0 0 0 0 0 14 67 0 0 0 0 11 32 88 89 179 222 240 240 232 194 142 150 169 191 230 270 336 558 728 819 761 675 626
334 0 0 0 0 0 0 0 0 0 0 0 0 0 0 0 0 0 0 0 0 0 0 0 0 0 0 0 0 0 0 0 0 2 7 17 7 3 0 0 8 2 0 0 0 0 0 0 0 0 0 0 0 0 0 0 22 11 0 2 1 0 0 1 4 60 192 185 214 232 260 259 227 234 256 278 287 303 300 326 455 559 625 662 685
0 0 0 0 0 0 0 0 0 0 0 0 0 0 0 0 0 0 0 0 0 0 0 0 0 0 0 0 0 0 0 22 42 32 17 18 7 0 0 7 15 12 0 0 0 0 0 0 0 0 0 0 0 0 0 0 21 30 12 22 2 0 0 0 0 76 118 128 135 138 157 214 244 267 250 236 265 328 344 343 375 426 531 578 613
0 0 0 0 0 0 0 0 0 0 0 0 0 0 0 0 0 0 0 0 0 0 0 0 0 0 0 0 0 1 4 32 129 79 39 14 21 4 0 0 13 8 0 0 0 0 0 0 0 0 0 0 0 0 0 0 7 0 0 13 0 0 0 0 0 2 20 23 0 66 128 118 127 178 219 228 237 255 284 287 296 315 368 476 555
0 0 0 0 0 0 0 0 0 0 0 0 0 0 0 0 0 0 0 0 0 0 0 0 0 0 0 0 0 0 0 0 14 9 0 0 0 0 1 8 7 0 0 0 0 0 0 0 0 0 0 0 0 0 0 0 0 0 0 6 5 1 0 0 0 0 10 0 0 0 59 94 48 121 147 167 178 193 196 213 294 363 484 646 730
0 0 0 0 0 0 0 0 0 0 0 0 0 0 0 0 0 0 0 0 0 0 0 0 0 0 0 0 0 0 0 0 0 0 0 0 0 0 0 0 0 0 0 0 0 0 0 0 0 0 0 0 0 0 0 0 0 0 0 0 6 2 0 0 0 0 0 0 0 0 0 0 0 67 57 0 74 165 197 217 260 356 396 470 506
0 0 0 0 0 0 0 0 0 0 0 0 0 0 0 0 0 0 0 0 0 0 0 0 0 0 0 0 0 0 0 0 4 0 0 0 0 0 0 0 0 0 0 0 0 0 0 0 0 0 0 0 0 0 0 0 0 0 0 0 0 0 0 0 0 0 0 0 0 0 0 0 0 0 51 5 0 12 69 163 215 233 259 273 296
0 0 0 0 0 0 0 0 0 0 0 0 0 0 0 0 0 0 0 0 0 0 0 0 0 0 0 0 0 0 0 0 0 0 0 0 0 0 0 0 0 0 0 0 0 0 0 0 0 0 0 0 0 0 0 2 2 0 0 0 0 0 0 0 0 0 0 0 0 0 0 0 0 9 47 50 0 30 62 81 99 150 149 142 126
0 0 0 0 0 0 0 0 0 0 0 0 0 0 0 0 0 0 0 0 0 0 0 0 0 0 0 0 0 0 0 0 0 0 0 0 0 0 0 0 0 0 0 0 0 0 0 0 0 0 0 0 0 0 1 6 11 9 11 32 3 0 0 0 0 0 0 0 55 121 21 19 29 90 84 77 50 43 47 72 96 111 95 83 84
0 0 0 0 0 0 0 0 0 0 0 0 0 0 0 0 0 0 0 0 0 0 0 0 0 0 0 0 0 0 0 0 0 0 0 0 0 0 0 0 0 0 0 0 0 0 0 0 0 0 0 0 9 34 52 49 52 71 74 38 0 0 0 0 0 0 0 0 48 173 194 181 96 69 40 23 19 39 30 47 64 70 58 53 61
0 0 0 0 0 0 0 0 0 0 0 0 0 0 0 0 0 0 0 0 0 0 0 0 0 0 0 0 0 0 0 0 0 0 0 0 0 0 0 0 0 0 0 0 0 0 0 0 0 0 0 5 28 84 117 97 63 24 3 0 0 0 0 0 0 0 0 0 0 52 92 89 31 46 26 9 13 22 42 60 74 83 43 16 4
0 0 0 0 0 0 0 0 0 0 0 0 0 0 0 0 0 0 0 0 0 0 0 0 0 0 0 0 0 0 0 0 0 0 0 0 0 0 0 0 0 0 0 0 0 0 0 0 0 0 0 0 1 57 97 102 69 34 14 0 0 0 0 0 0 0 0 0 0 0 14 44 13 12 23 6 1 2 23 51 34 2 2 4 4
0 0 0 0 0 0 0 0 0 1 0 0 0 0 0 0 0 0 0 0 0 0 0 0 0 0 0 0 0 2 1 0 0 0 0 0 0 0 0 0 0 0 0 0 0 0 0 0 0 0 0 0 0 0 7 76 92 69 48 0 0 0 0 0 0 24 0 0 70 17 42 56 30 23 10 8 12 3 4 7 4 2 1 1 0
Wind_Speed
nan nan nan nan nan nan nan 15 15 13 14 13 13 12 10 10 10 9 8 8 8 5 5 4 4 6 7 7 7 8 10 10 10 11 12 12 13 14 16 19 21 19 13 10 12 13 9 8 8 3 1 2 3 6 9 10 12 13 13 13 13 14 15 16 17 14 nan nan 8 nan nan nan nan 10 nan nan nan nan nan nan nan nan nan nan nan
nan nan nan nan nan nan nan nan 14 nan 15 11 12 12 11 11 10 10 9 9 8 7 8 5 5 5 4 5 5 6 9 10 10 10 10 11 12 14 15 17 17 17 14 12 14 15 9 9 9 5 3 4 4 3 9 9 10 13 13 13 12 14 14 15 16 15 nan nan nan nan nan nan nan 11 nan nan nan nan nan nan nan nan nan nan nan
nan nan nan nan nan nan nan nan nan nan 14 10 9 10 12 12 11 11 10 10 8 8 7 6 7 6 4 4 6 7 8 11 11 10 8 9 12 14 16 13 14 16 14 12 13 17 13 11 9 6 5 5 4 2 4 8 9 13 14 12 12 13 14 15 16 15 nan nan nan nan nan nan nan 11 11 nan nan nan nan nan nan nan nan nan nan
nan nan nan nan nan nan nan nan nan nan 16 12 9 10 11 12 12 10 10 12 11 9 8 7 7 7 5 5 9 9 8 10 9 8 9 10 13 14 15 15 10 12 13 12 10 12 14 12 11 8 8 8 6 6 3 6 9 13 14 13 12 13 14 15 16 15 nan nan nan nan nan nan nan nan nan nan nan nan nan nan nan nan nan nan nan
nan nan nan nan nan nan nan nan nan nan nan 13 10 10 11 11 10 10 11 13 12 10 10 9 8 8 7 6 7 7 7 8 9 8 8 11 13 13 13 13 13 9 11 10 9 7 9 10 11 11 11 9 8 7 8 3 7 12 14 13 13 13 13 14 15 14 nan nan nan nan nan nan nan nan nan nan nan nan nan nan nan nan nan nan nan
nan nan nan nan nan nan nan nan nan nan nan 16 15 11 9 9 8 11 10 12 12 10 10 10 9 9 8 6 4 5 8 8 9 10 11 12 12 12 11 12 13 14 12 6 7 8 8 8 9 12 11 11 10 8 8 7 7 11 12 13 14 13 13 13 13 12 nan nan nan nan nan nan nan nan nan nan nan nan nan nan nan nan nan nan nan
nan nan nan nan nan nan nan nan nan nan nan nan nan nan nan nan 8 8 9 9 10 10 10 8 9 8 7 8 5 7 9 7 8 12 14 13 14 13 11 12 14 15 13 10 4 6 9 8 8 9 11 12 13 10 10 10 9 9 9 12 14 13 11 11 12 12 nan nan nan nan nan nan nan nan nan nan nan nan nan nan nan nan nan nan nan
nan nan nan nan nan nan nan nan nan nan nan nan nan nan nan nan nan 9 nan 10 10 9 9 8 8 8 10 10 8 8 9 9 10 14 14 14 15 15 14 13 14 14 13 15 13 12 6 9 7 8 10 13 15 12 11 11 11 10 10 12 13 13 11 11 12 11 9 nan nan nan nan nan nan nan nan nan nan nan nan nan nan nan nan nan nan
nan nan nan nan nan nan nan nan nan nan nan nan nan nan nan nan nan nan nan 12 10 8 8 7 8 10 10 9 10 11 12 10 10 12 13 13 14 15 15 14 13 11 14 14 13 16 13 5 10 8 10 13 13 11 11 12 13 10 12 13 13 12 11 11 12 11 9 nan nan nan nan nan nan nan nan nan nan nan nan nan nan nan nan nan nan
nan nan nan 17 nan nan nan nan nan nan nan nan nan nan nan nan nan nan nan nan 12 10 8 8 8 8 9 10 10 nan nan 11 10 12 13 11 12 13 13 13 13 14 15 16 15 15 15 9 9 7 10 11 12 12 12 10 11 9 9 12 13 12 12 12 12 10 10 nan nan nan nan nan nan nan nan nan nan nan nan nan nan nan nan nan nan
nan nan 17 nan nan nan nan nan nan nan nan nan nan nan nan nan nan nan nan nan nan nan nan nan 9 8 11 13 13 13 13 10 10 12 13 12 11 11 14 13 13 15 17 18 18 14 15 15 14 18 15 10 12 13 14 11 10 8 8 9 11 13 13 12 12 10 9 nan nan nan nan nan nan nan nan nan nan nan nan nan nan nan nan nan nan
nan nan nan nan nan nan nan nan nan nan nan nan nan nan nan nan nan nan nan nan nan nan nan nan nan nan 13 14 14 14 13 12 12 13 14 13 11 11 11 12 14 16 18 19 18 17 15 14 14 13 17 10 14 11 14 12 10 9 9 7 8 10 13 13 13 11 10 9 nan nan nan nan nan nan nan nan nan nan nan nan nan nan nan nan nan
nan nan nan nan nan nan nan nan nan nan nan nan nan nan nan nan nan nan nan nan nan nan nan nan nan nan 10 11 nan nan 11 13 13 13 13 12 11 10 9 12 13 15 18 19 19 20 15 15 15 14 14 17 15 11 11 13 11 9 8 9 7 8 12 12 12 11 10 9 7 nan nan nan nan nan nan nan nan nan nan nan nan nan nan nan nan
nan nan nan nan nan nan nan nan nan nan nan nan nan nan nan nan nan nan nan nan nan nan nan nan nan nan nan 9 nan nan nan nan 14 13 14 13 12 11 10 10 11 12 16 19 18 18 17 17 17 15 15 16 17 20 15 14 14 10 8 10 7 8 11 12 11 11 11 10 7 nan nan nan nan nan nan nan nan nan nan nan nan nan nan nan nan
nan nan nan nan nan nan nan nan nan nan nan nan nan nan nan nan nan nan nan nan nan nan nan nan nan nan nan nan nan 12 nan nan nan nan nan 15 14 13 13 13 11 12 14 17 17 15 19 19 17 16 15 14 16 19 18 15 16 12 8 9 9 8 10 12 11 10 11 10 8 7 nan nan nan nan nan nan nan nan nan nan nan nan nan nan nan
nan nan nan nan nan nan nan nan nan nan nan nan nan nan nan nan nan nan nan nan nan nan nan nan nan nan nan nan 5 nan nan nan nan nan nan nan 17 15 14 14 15 14 14 13 16 16 17 18 17 17 16 14 18 20 20 20 15 13 10 10 10 13 10 11 10 9 10 11 9 7 nan nan nan nan 8 nan nan nan nan nan nan nan nan nan nan
nan nan nan nan nan nan nan nan nan nan nan nan nan nan nan nan nan nan nan nan nan nan nan nan nan 7 nan nan nan nan nan nan nan nan nan nan nan 15 14 15 16 16 15 12 14 17 20 24 23 20 17 18 20 21 22 19 18 18 15 11 12 11 11 10 9 9 8 9 10 8 6 7 7 nan nan 7 nan nan nan nan nan nan nan nan nan
nan nan nan nan nan nan nan nan nan nan nan nan nan nan nan nan nan nan nan nan nan nan nan nan nan nan nan 8 10 nan nan nan nan nan nan nan nan nan 14 14 nan nan 16 15 14 15 22 23 23 20 20 19 19 20 22 22 19 19 20 16 11 11 12 11 9 8 8 7 8 9 7 7 7 7 6 7 nan nan nan nan nan nan nan nan nan
nan nan nan nan nan nan nan nan nan nan nan nan nan nan nan nan nan nan nan nan nan nan nan nan nan nan nan nan nan 9 10 8 nan nan nan nan nan nan nan nan nan nan nan 14 15 15 18 22 20 20 20 22 19 19 22 22 18 17 15 15 13 13 13 12 12 8 6 7 8 8 9 8 7 6 7 6 nan nan nan nan nan nan nan nan nan
nan nan nan nan nan nan nan nan nan nan nan nan nan nan nan nan nan nan nan nan nan nan nan nan nan nan nan nan nan nan nan 10 10 nan nan nan nan nan nan nan nan nan nan 13 14 14 16 19 20 21 22 20 20 18 19 22 22 21 19 13 12 14 13 14 12 10 7 9 8 8 8 8 8 8 7 8 8 8 nan nan nan nan nan nan nan
nan nan nan nan nan nan nan nan nan nan nan nan nan nan nan nan nan nan nan nan nan nan nan nan nan nan nan nan nan nan nan nan nan nan nan nan nan nan nan nan nan nan nan nan 14 15 16 17 20 21 21 22 21 20 19 21 23 23 20 13 13 15 11 12 13 12 10 9 8 8 8 7 8 8 9 8 8 9 9 7 6 nan 8 nan nan
nan nan nan nan nan nan nan nan nan nan nan nan nan nan nan nan nan nan nan nan nan nan nan nan nan nan nan nan nan nan nan nan nan nan nan nan nan nan nan nan nan nan nan nan nan 15 16 18 19 22 23 23 22 22 21 20 22 24 20 13 11 12 12 14 14 15 12 8 6 7 9 8 8 8 8 8 8 8 9 9 6 5 6 7 nan
nan nan nan nan nan nan nan nan nan 7 nan nan nan nan nan nan nan nan nan nan nan nan nan nan nan nan nan nan nan nan nan nan nan nan nan nan nan nan nan nan nan nan nan nan nan nan 17 19 19 21 24 23 22 21 22 21 21 22 20 17 13 12 12 14 15 15 10 6 5 6 8 9 8 9 9 9 8 8 8 8 9 6 5 5 nan
nan nan nan nan nan nan nan nan nan nan nan nan nan nan nan nan nan nan nan nan nan nan nan nan nan nan nan nan nan nan nan nan nan nan nan nan nan nan nan nan nan nan nan nan nan nan 19 21 22 22 22 23 22 23 20 21 21 19 20 20 17 15 15 13 12 12 9 9 9 7 7 8 9 10 11 10 9 8 7 8 8 8 6 5 5
nan nan nan nan nan nan nan nan nan nan nan nan nan nan nan nan nan nan nan nan nan nan nan nan nan nan nan nan nan nan nan nan nan nan nan nan nan nan nan nan nan nan nan nan nan nan 21 22 21 19 20 22 24 23 20 19 19 21 18 20 16 17 17 14 13 13 10 8 8 9 8 9 9 9 12 13 10 10 8 6 6 8 8 6 5
nan nan nan nan nan nan nan nan nan nan nan nan nan nan nan nan nan nan nan nan nan nan nan nan nan nan nan nan nan nan nan nan nan nan nan nan nan nan nan nan nan nan nan nan nan nan nan 20 21 21 20 21 24 25 22 20 22 23 18 18 19 17 18 17 15 14 13 12 12 10 9 9 10 10 12 13 11 11 12 11 9 7 8 7 5
nan nan nan nan nan nan nan nan nan nan nan nan nan nan nan nan nan nan nan nan nan nan nan nan nan nan nan nan nan nan nan nan nan nan nan nan nan nan nan nan nan nan nan nan nan nan nan nan 19 20 21 21 23 22 23 22 21 21 20 19 18 18 17 18 16 15 16 16 12 10 11 10 11 11 14 14 14 15 15 13 11 10 9 7 4
nan nan nan nan nan nan nan nan nan nan nan nan nan nan nan nan nan nan nan nan nan nan nan nan nan nan nan nan nan nan nan nan nan nan nan nan nan nan nan nan nan nan nan nan nan nan nan nan nan 19 19 20 20 21 21 21 23 21 20 22 22 22 19 18 18 18 18 19 16 13 14 13 11 13 15 16 16 17 15 14 15 11 7 6 3
nan nan nan nan nan nan nan nan nan nan nan nan nan nan nan nan nan nan nan nan nan nan nan nan nan nan nan nan nan nan nan nan nan nan nan nan nan nan nan nan nan nan nan nan nan nan nan nan nan nan 20 19 19 20 21 22 23 23 25 25 24 24 21 19 20 20 21 21 20 18 15 15 13 13 16 18 18 16 13 12 12 11 11 7 5
nan nan nan nan nan nan nan nan nan nan nan nan nan nan nan nan nan nan nan nan nan nan nan nan nan nan nan nan nan nan nan nan nan nan nan nan nan nan nan nan nan nan nan nan nan nan nan nan nan nan nan nan 20 21 22 20 21 23 26 25 24 23 22 21 20 21 22 21 21 25 23 18 16 11 12 16 18 17 13 11 13 12 12 12 9
nan nan nan nan nan nan nan nan nan nan nan nan nan nan nan nan nan nan nan nan nan nan nan nan nan nan nan nan nan nan nan nan nan nan nan nan nan nan nan nan nan nan nan nan nan nan nan nan nan nan nan nan nan nan 21 20 20 22 25 26 25 21 20 23 21 21 21 19 24 26 24 24 15 12 12 14 18 17 16 12 12 13 14 16 14
14 nan nan nan nan nan nan nan nan nan nan nan nan nan nan nan nan nan nan nan nan nan nan nan nan nan nan nan nan nan nan nan nan nan nan nan nan nan nan nan nan nan nan nan nan nan nan nan nan nan nan nan nan nan nan 21 20 20 24 27 26 24 25 27 25 22 21 21 23 24 26 27 24 21 21 20 22 21 18 18 19 20 19 19 17
15 15 nan nan nan nan nan nan nan nan nan nan nan nan nan nan nan nan nan nan nan nan nan nan nan nan nan nan nan nan nan nan nan nan nan nan nan nan nan nan nan nan nan nan nan nan nan nan nan nan nan nan nan nan nan nan nan 23 24 25 28 28 28 29 33 31 25 21 23 25 26 27 28 28 26 23 21 24 23 24 23 22 24 23 21
16 17 17 nan nan nan nan nan nan nan nan nan nan nan nan nan nan nan nan nan nan nan nan nan nan nan nan nan nan nan nan nan nan nan nan nan nan nan nan nan nan nan nan nan nan nan nan nan nan nan nan nan nan nan nan nan nan 24 24 24 28 31 32 33 34 30 26 24 25 24 26 27 27 27 26 24 25 23 22 25 27 28 27 24 22
18 19 18 nan nan nan nan nan nan nan nan nan nan nan nan nan nan nan nan nan nan nan nan nan nan nan nan nan nan nan nan nan nan nan nan nan nan nan nan nan nan nan nan nan nan nan nan nan nan nan nan nan nan nan nan nan nan 25 27 27 27 30 31 32 33 35 33 30 28 28 27 27 26 24 25 27 28 25 23 25 29 29 29 27 27
20 19 19 nan nan nan nan nan nan nan nan nan nan nan nan nan nan nan nan nan nan nan nan nan nan nan nan nan nan nan nan nan nan nan nan nan nan nan nan nan nan nan nan nan nan nan nan nan nan nan nan nan nan nan nan nan nan nan 29 28 28 28 29 31 32 35 37 36 36 34 32 30 27 27 28 31 32 30 27 26 29 33 33 30 31
20 20 19 nan nan nan nan nan nan nan nan nan nan nan nan nan nan nan nan nan nan nan nan nan nan nan nan nan nan nan nan nan nan nan nan nan nan nan nan nan nan nan nan nan nan nan nan nan nan nan nan nan nan nan nan nan nan nan nan nan 29 28 29 29 30 32 34 34 35 35 35 35 33 33 33 33 36 37 36 35 33 30 30 31 29
21 21 nan nan nan nan nan nan nan nan nan nan nan nan nan nan nan nan nan nan nan nan nan nan nan nan nan nan nan nan nan nan nan nan nan nan nan nan nan nan nan nan nan nan nan nan nan nan nan nan nan nan nan nan nan nan nan nan nan nan nan nan 31 31 30 30 33 36 39 40 39 39 39 37 36 37 38 37 37 35 36 39 39 37 33
22 nan nan nan nan nan nan nan nan nan nan nan nan nan nan nan nan nan nan nan nan nan nan nan nan nan nan nan nan nan nan nan nan nan nan nan nan nan nan nan nan nan nan nan nan nan nan nan nan nan nan nan nan nan nan nan nan nan nan nan nan nan nan nan nan nan 32 32 34 35 38 40 42 44 42 41 41 41 39 36 36 34 34 33 33
23 nan nan nan nan nan nan nan nan nan nan nan nan nan nan nan nan nan nan nan nan nan nan nan nan nan nan nan nan nan nan nan nan nan nan nan nan nan nan nan nan nan nan nan nan nan nan nan nan nan nan nan nan nan nan nan nan nan nan nan nan nan nan nan nan nan 31 33 34 37 38 41 44 46 49 47 45 43 42 38 36 35 37 39 38
nan nan nan nan nan nan nan nan nan nan nan nan nan nan nan nan nan nan nan nan nan nan nan nan nan nan nan nan nan nan nan nan nan nan nan nan nan nan nan nan nan nan nan nan nan nan nan nan nan nan nan nan nan nan nan nan nan nan nan nan nan nan nan nan nan nan 32 32 33 35 38 40 42 44 46 48 50 50 49 45 44 40 41 42 40
nan nan nan nan nan nan nan nan nan nan nan nan nan nan nan nan nan nan nan nan nan nan nan nan nan nan nan nan nan nan nan nan 19 nan nan nan nan nan nan nan nan nan nan nan nan nan nan nan nan nan nan nan nan nan nan nan nan nan nan nan nan nan nan nan nan nan nan nan nan nan 35 35 35 36 40 46 50 51 52 52 52 51 48 44 43
nan nan nan nan nan nan nan nan nan nan nan nan nan nan nan nan nan nan nan nan nan nan nan nan nan nan nan nan nan nan nan nan nan nan nan nan nan nan nan nan nan nan nan nan nan nan nan nan nan nan nan nan nan nan nan nan nan nan nan nan nan nan nan nan nan nan nan nan nan nan nan nan nan 34 40 42 43 45 48 50 54 55 55 54 53
nan nan nan nan nan nan nan nan nan nan nan nan nan nan nan nan nan nan nan nan nan nan nan nan nan nan nan nan nan nan nan nan nan nan nan nan nan nan nan nan nan nan nan nan nan nan nan nan nan nan nan nan nan nan nan nan nan nan nan nan nan nan nan nan nan nan nan nan nan nan nan nan nan nan nan nan nan 41 42 45 48 51 52 54 56
nan nan nan nan nan nan nan nan nan nan nan nan nan nan nan nan nan nan nan nan nan nan nan nan nan nan nan nan nan nan nan nan nan nan nan nan nan nan nan nan nan nan nan nan nan nan nan nan nan nan nan nan nan nan nan nan nan nan nan nan nan nan nan nan nan nan nan nan nan nan nan nan nan nan nan nan nan nan nan 43 44 46 48 50 52
nan nan nan nan nan nan nan nan nan nan nan nan nan nan nan nan nan nan nan nan nan nan nan nan nan nan nan nan nan nan nan nan nan nan nan nan nan nan nan nan nan nan nan nan nan nan nan nan nan nan nan nan nan nan nan nan nan nan nan nan nan nan nan nan nan nan nan nan nan nan nan nan nan nan nan nan nan nan nan nan nan 43 45 46 47
nan nan nan nan nan nan nan nan nan nan nan nan nan nan nan nan nan nan nan nan nan nan nan nan nan nan nan nan nan nan nan nan nan nan nan nan nan nan nan nan nan nan nan nan nan nan nan nan nan nan nan nan nan nan nan nan nan nan nan nan nan nan nan nan nan nan nan nan nan 38 nan nan nan nan nan nan nan nan nan nan nan 43 nan nan nan
nan nan nan nan nan nan nan nan nan nan nan nan nan nan nan nan nan nan nan nan nan nan nan nan nan nan nan nan nan nan nan nan nan nan nan nan nan nan nan nan nan nan nan nan nan nan nan nan nan nan nan nan nan nan nan nan nan nan nan nan nan nan nan nan nan nan nan nan nan 39 39 41 nan nan nan nan nan nan nan nan nan nan nan nan nan
nan nan nan nan nan nan nan nan nan nan nan nan nan nan nan nan nan nan nan nan nan nan nan nan nan nan nan nan nan nan nan nan nan nan nan nan nan nan nan nan nan nan nan nan nan nan nan nan nan nan nan nan nan nan 27 nan nan nan nan nan nan nan nan nan nan nan nan nan nan nan nan nan nan nan nan nan nan nan nan nan nan nan nan nan nan
nan nan nan nan nan nan nan nan nan nan nan nan nan nan nan nan nan nan nan nan nan nan nan nan nan nan nan nan nan nan nan nan nan nan nan nan nan nan nan nan nan nan nan nan nan nan nan nan nan nan nan nan nan nan nan 25 nan nan nan nan nan nan nan nan nan nan nan nan nan nan nan nan nan nan nan nan nan nan nan nan nan nan nan nan nan
nan nan nan nan nan nan nan nan nan nan nan nan nan nan nan nan nan nan nan nan nan nan nan nan nan nan nan nan nan nan nan nan nan nan nan nan nan nan nan nan nan nan nan nan nan nan nan nan nan nan nan nan nan nan nan nan nan nan nan nan nan nan nan nan nan nan nan nan nan nan nan nan nan nan nan nan nan nan nan nan nan nan nan nan nan
Wind_Direction
nan nan nan nan nan nan nan 254 265 267 274 276 277 270 259 251 254 258 266 274 284 297 303 302 290 283 281 268 245 232 229 225 220 220 225 235 244 244 266 275 274 271 276 271 260 261 238 241 256 253 250 194 231 291 293 299 294 288 291 297 299 305 312 317 320 316 nan nan 286 nan nan nan nan 276 nan nan nan nan nan nan nan nan nan nan nan
nan nan nan nan nan nan nan nan 252 nan 254 248 273 279 268 263 261 261 262 268 274 284 287 297 292 278 266 263 257 230 228 231 228 220 216 223 235 243 263 278 282 278 276 276 269 271 257 249 262 255 215 246 186 207 290 292 298 293 293 298 300 303 311 318 319 316 nan nan nan nan nan nan nan 277 nan nan nan nan nan nan nan nan nan nan nan
nan nan nan nan nan nan nan nan nan nan 250 252 254 264 265 265 264 265 268 271 274 276 283 299 301 294 276 262 255 246 236 234 234 234 235 247 254 250 247 259 280 284 282 286 280 288 277 272 289 295 296 317 291 187 267 303 298 294 299 298 301 302 310 317 318 314 nan nan nan nan nan nan nan 287 285 nan nan nan nan nan nan nan nan nan nan
nan nan nan nan nan nan nan nan nan nan 244 247 250 245 247 255 259 267 272 272 272 276 286 287 287 289 286 251 243 241 241 244 244 246 249 254 262 260 257 253 260 290 294 298 290 294 290 295 311 311 315 314 312 304 329 292 297 296 303 303 300 301 310 316 318 315 nan nan nan nan nan nan nan nan nan nan nan nan nan nan nan nan nan nan nan
nan nan nan nan nan nan nan nan nan nan nan 242 238 237 239 249 255 268 273 276 273 267 268 267 279 282 271 256 257 258 257 254 257 257 256 258 260 260 262 264 261 284 306 306 306 297 295 307 311 311 319 310 316 315 295 309 293 299 302 304 303 304 311 314 316 314 nan nan nan nan nan nan nan nan nan nan nan nan nan nan nan nan nan nan nan
nan nan nan nan nan nan nan nan nan nan nan 236 230 228 233 242 254 264 268 271 268 266 266 262 260 260 265 271 275 277 264 247 245 248 245 240 246 253 261 267 266 265 271 319 328 309 295 296 315 317 320 314 303 302 310 314 299 293 300 303 303 306 316 316 314 315 nan nan nan nan nan nan nan nan nan nan nan nan nan nan nan nan nan nan nan
nan nan nan nan nan nan nan nan nan nan nan nan nan nan nan nan 259 268 276 268 264 268 266 256 258 251 255 263 256 253 260 258 252 255 246 235 232 239 260 279 277 272 272 260 285 318 293 298 304 311 316 311 306 314 325 324 295 290 306 301 304 307 313 317 312 312 nan nan nan nan nan nan nan nan nan nan nan nan nan nan nan nan nan nan nan
nan nan nan nan nan nan nan nan nan nan nan nan nan nan nan nan nan 270 nan 261 270 265 258 251 251 243 245 252 252 246 249 242 236 241 242 233 232 237 250 269 280 273 271 261 240 219 286 298 292 292 296 300 306 320 321 326 314 312 318 308 307 308 311 313 313 312 302 nan nan nan nan nan nan nan nan nan nan nan nan nan nan nan nan nan nan
nan nan nan nan nan nan nan nan nan nan nan nan nan nan nan nan nan nan nan 265 266 266 250 248 251 248 247 242 237 241 245 241 239 246 246 240 238 240 249 261 272 277 261 266 262 245 228 234 276 273 286 295 309 301 307 321 324 326 329 315 308 306 311 309 310 315 308 nan nan nan nan nan nan nan nan nan nan nan nan nan nan nan nan nan nan
nan nan nan 259 nan nan nan nan nan nan nan nan nan nan nan nan nan nan nan nan 264 256 244 246 261 255 250 250 240 nan nan 238 240 246 253 250 240 238 250 258 265 264 257 256 263 264 262 249 303 293 272 282 302 295 291 309 309 322 333 316 308 301 298 300 306 314 313 nan nan nan nan nan nan nan nan nan nan nan nan nan nan nan nan nan nan
nan nan 256 nan nan nan nan nan nan nan nan nan nan nan nan nan nan nan nan nan nan nan nan nan 262 261 250 249 250 249 250 248 245 254 257 257 252 242 253 257 263 268 263 253 255 260 266 266 249 238 255 304 294 305 296 301 298 322 332 315 304 297 293 295 298 307 304 nan nan nan nan nan nan nan nan nan nan nan nan nan nan nan nan nan nan
nan nan nan nan nan nan nan nan nan nan nan nan nan nan nan nan nan nan nan nan nan nan nan nan nan nan 248 247 247 247 251 249 244 246 251 257 260 255 257 258 263 264 263 254 246 251 256 255 254 250 240 251 280 289 297 296 294 311 323 303 290 289 291 294 297 303 304 299 nan nan nan nan nan nan nan nan nan nan nan nan nan nan nan nan nan
nan nan nan nan nan nan nan nan nan nan nan nan nan nan nan nan nan nan nan nan nan nan nan nan nan nan 251 252 nan nan 256 255 250 248 254 263 267 262 262 256 255 257 255 249 242 244 244 259 260 258 250 240 257 285 285 289 293 282 302 295 279 277 280 286 293 300 307 303 283 nan nan nan nan nan nan nan nan nan nan nan nan nan nan nan nan
nan nan nan nan nan nan nan nan nan nan nan nan nan nan nan nan nan nan nan nan nan nan nan nan nan nan nan 232 nan nan nan nan 257 251 249 251 257 261 263 255 252 256 253 246 243 247 251 256 265 268 248 237 241 251 252 261 266 289 283 287 273 274 283 284 287 299 310 308 295 nan nan nan nan nan nan nan nan nan nan nan nan nan nan nan nan
nan nan nan nan nan nan nan nan nan nan nan nan nan nan nan nan nan nan nan nan nan nan nan nan nan nan nan nan nan 244 nan nan nan nan nan 251 253 254 252 257 251 258 257 248 245 244 248 246 252 266 263 246 238 251 251 253 255 279 275 275 276 270 272 279 283 298 305 312 304 275 nan nan nan nan nan nan nan nan nan nan nan nan nan nan nan
nan nan nan nan nan nan nan nan nan nan nan nan nan nan nan nan nan nan nan nan nan nan nan nan nan nan nan nan 310 nan nan nan nan nan nan nan 254 248 249 248 248 249 254 252 244 240 247 247 245 243 264 264 253 251 250 244 256 264 275 270 274 259 260 272 279 286 299 305 304 286 nan nan nan nan 299 nan nan nan nan nan nan nan nan nan nan
nan nan nan nan nan nan nan nan nan nan nan nan nan nan nan nan nan nan nan nan nan nan nan nan nan 3 nan nan nan nan nan nan nan nan nan nan nan 247 246 245 241 242 247 251 254 242 238 240 232 228 233 250 254 251 249 248 246 249 253 268 265 263 261 267 275 279 289 295 308 296 273 272 284 nan nan 302 nan nan nan nan nan nan nan nan nan
nan nan nan nan nan nan nan nan nan nan nan nan nan nan nan nan nan nan nan nan nan nan nan nan nan nan nan 346 360 nan nan nan nan nan nan nan nan nan 254 247 nan nan 243 243 243 240 242 241 242 238 241 241 242 248 247 246 247 245 245 247 272 269 256 265 267 258 280 293 312 303 288 273 275 282 292 302 nan nan nan nan nan nan nan nan nan
nan nan nan nan nan nan nan nan nan nan nan nan nan nan nan nan nan nan nan nan nan nan nan nan nan nan nan nan nan 342 343 337 nan nan nan nan nan nan nan nan nan nan nan 248 242 244 248 247 244 238 245 251 248 242 242 244 249 253 260 264 279 270 265 273 262 263 281 296 312 305 295 280 274 281 281 292 nan nan nan nan nan nan nan nan nan
nan nan nan nan nan nan nan nan nan nan nan nan nan nan nan nan nan nan nan nan nan nan nan nan nan nan nan nan nan nan nan 334 337 nan nan nan nan nan nan nan nan nan nan 247 251 249 248 253 251 244 239 250 255 251 245 245 245 245 246 262 267 263 263 267 267 275 290 298 303 320 310 279 267 274 276 285 287 292 nan nan nan nan nan nan nan
nan nan nan nan nan nan nan nan nan nan nan nan nan nan nan nan nan nan nan nan nan nan nan nan nan nan nan nan nan nan nan nan nan nan nan nan nan nan nan nan nan nan nan nan 255 254 252 248 250 250 246 246 252 258 255 249 246 243 243 261 269 277 250 246 262 260 263 270 284 309 310 277 260 262 265 272 283 292 293 287 284 nan 304 nan nan
nan nan nan nan nan nan nan nan nan nan nan nan nan nan nan nan nan nan nan nan nan nan nan nan nan nan nan nan nan nan nan nan nan nan nan nan nan nan nan nan nan nan nan nan nan 255 259 254 248 247 245 244 247 253 259 255 247 243 242 257 254 260 262 263 256 251 244 243 268 297 297 276 251 250 252 258 270 285 296 297 294 292 302 312 nan
nan nan nan nan nan nan nan nan nan 284 nan nan nan nan nan nan nan nan nan nan nan nan nan nan nan nan nan nan nan nan nan nan nan nan nan nan nan nan nan nan nan nan nan nan nan nan 260 261 254 246 243 239 242 248 249 248 245 241 246 248 242 245 253 254 256 254 260 256 252 267 283 277 261 248 241 245 258 276 290 302 298 298 301 311 nan
nan nan nan nan nan nan nan nan nan nan nan nan nan nan nan nan nan nan nan nan nan nan nan nan nan nan nan nan nan nan nan nan nan nan nan nan nan nan nan nan nan nan nan nan nan nan 249 255 251 247 245 244 242 246 248 240 231 227 238 243 244 242 247 250 250 253 266 272 262 247 260 271 264 257 252 249 252 259 269 281 296 294 302 308 326
nan nan nan nan nan nan nan nan nan nan nan nan nan nan nan nan nan nan nan nan nan nan nan nan nan nan nan nan nan nan nan nan nan nan nan nan nan nan nan nan nan nan nan nan nan nan 254 260 263 256 247 243 243 244 241 240 237 230 231 238 251 247 243 243 233 226 231 251 266 266 264 260 257 259 260 250 250 258 257 267 282 281 289 305 334
nan nan nan nan nan nan nan nan nan nan nan nan nan nan nan nan nan nan nan nan nan nan nan nan nan nan nan nan nan nan nan nan nan nan nan nan nan nan nan nan nan nan nan nan nan nan nan 249 256 259 254 249 246 244 242 241 235 231 231 229 240 251 244 234 224 218 213 218 228 229 234 248 251 250 258 256 249 247 251 249 259 274 279 283 309
nan nan nan nan nan nan nan nan nan nan nan nan nan nan nan nan nan nan nan nan nan nan nan nan nan nan nan nan nan nan nan nan nan nan nan nan nan nan nan nan nan nan nan nan nan nan nan nan 253 250 255 252 249 244 244 241 240 243 240 238 231 237 244 237 225 215 210 213 230 241 241 232 232 242 246 248 244 244 249 250 252 265 272 283 306
nan nan nan nan nan nan nan nan nan nan nan nan nan nan nan nan nan nan nan nan nan nan nan nan nan nan nan nan nan nan nan nan nan nan nan nan nan nan nan nan nan nan nan nan nan nan nan nan nan 260 250 243 244 246 242 242 238 242 243 238 235 233 236 235 229 224 217 213 212 222 234 235 229 228 238 245 246 248 253 255 257 263 276 275 295
nan nan nan nan nan nan nan nan nan nan nan nan nan nan nan nan nan nan nan nan nan nan nan nan nan nan nan nan nan nan nan nan nan nan nan nan nan nan nan nan nan nan nan nan nan nan nan nan nan nan 251 245 237 234 240 242 238 239 239 239 238 239 240 239 231 225 224 217 212 220 223 226 226 225 230 241 248 252 253 258 270 275 261 261 252
nan nan nan nan nan nan nan nan nan nan nan nan nan nan nan nan nan nan nan nan nan nan nan nan nan nan nan nan nan nan nan nan nan nan nan nan nan nan nan nan nan nan nan nan nan nan nan nan nan nan nan nan 240 236 239 235 229 232 236 237 240 241 243 242 236 229 225 222 218 218 217 220 222 207 222 235 240 240 240 248 256 268 272 261 246
nan nan nan nan nan nan nan nan nan nan nan nan nan nan nan nan nan nan nan nan nan nan nan nan nan nan nan nan nan nan nan nan nan nan nan nan nan nan nan nan nan nan nan nan nan nan nan nan nan nan nan nan nan nan 245 245 236 234 236 236 238 243 242 235 232 230 228 226 231 231 222 228 237 215 213 225 231 234 233 235 241 244 258 254 250
344 nan nan nan nan nan nan nan nan nan nan nan nan nan nan nan nan nan nan nan nan nan nan nan nan nan nan nan nan nan nan nan nan nan nan nan nan nan nan nan nan nan nan nan nan nan nan nan nan nan nan nan nan nan nan 248 247 244 242 237 235 236 238 232 229 227 225 224 229 233 228 223 227 229 226 217 222 229 231 236 232 230 232 242 247
331 328 nan nan nan nan nan nan nan nan nan nan nan nan nan nan nan nan nan nan nan nan nan nan nan nan nan nan nan nan nan nan nan nan nan nan nan nan nan nan nan nan nan nan nan nan nan nan nan nan nan nan nan nan nan nan nan 242 246 240 236 236 235 233 231 226 224 228 235 229 223 221 223 223 224 224 224 222 218 235 241 239 235 232 234
324 328 325 nan nan nan nan nan nan nan nan nan nan nan nan nan nan nan nan nan nan nan nan nan nan nan nan nan nan nan nan nan nan nan nan nan nan nan nan nan nan nan nan nan nan nan nan nan nan nan nan nan nan nan nan nan nan 239 244 245 239 234 231 231 234 228 228 231 238 240 233 226 223 222 228 228 228 229 230 230 236 241 240 239 241
326 326 324 nan nan nan nan nan nan nan nan nan nan nan nan nan nan nan nan nan nan nan nan nan nan nan nan nan nan nan nan nan nan nan nan nan nan nan nan nan nan nan nan nan nan nan nan nan nan nan nan nan nan nan nan nan nan 245 243 245 245 239 233 229 230 231 230 228 234 243 242 238 235 233 230 230 232 233 234 235 241 243 242 240 240
331 328 325 nan nan nan nan nan nan nan nan nan nan nan nan nan nan nan nan nan nan nan nan nan nan nan nan nan nan nan nan nan nan nan nan nan nan nan nan nan nan nan nan nan nan nan nan nan nan nan nan nan nan nan nan nan nan nan 247 244 246 245 238 232 227 227 228 227 229 233 235 235 235 235 232 228 228 229 230 230 237 239 237 239 244
331 328 328 nan nan nan nan nan nan nan nan nan nan nan nan nan nan nan nan nan nan nan nan nan nan nan nan nan nan nan nan nan nan nan nan nan nan nan nan nan nan nan nan nan nan nan nan nan nan nan nan nan nan nan nan nan nan nan nan nan 243 241 240 240 235 227 223 223 228 231 233 232 229 227 230 229 229 225 223 222 226 233 236 238 243
331 329 nan nan nan nan nan nan nan nan nan nan nan nan nan nan nan nan nan nan nan nan nan nan nan nan nan nan nan nan nan nan nan nan nan nan nan nan nan nan nan nan nan nan nan nan nan nan nan nan nan nan nan nan nan nan nan nan nan nan nan nan 242 239 239 236 231 227 227 230 232 232 230 226 229 230 233 232 231 229 227 226 226 228 229
330 nan nan nan nan nan nan nan nan nan nan nan nan nan nan nan nan nan nan nan nan nan nan nan nan nan nan nan nan nan nan nan nan nan nan nan nan nan nan nan nan nan nan nan nan nan nan nan nan nan nan nan nan nan nan nan nan nan nan nan nan nan nan nan nan nan 236 231 226 223 225 229 232 233 233 233 232 235 237 232 233 236 241 245 242
330 nan nan nan nan nan nan nan nan nan nan nan nan nan nan nan nan nan nan nan nan nan nan nan nan nan nan nan nan nan nan nan nan nan nan nan nan nan nan nan nan nan nan nan nan nan nan nan nan nan nan nan nan nan nan nan nan nan nan nan nan nan nan nan nan nan 236 235 230 227 227 228 230 231 232 235 237 238 240 239 235 234 236 241 241
nan nan nan nan nan nan nan nan nan nan nan nan nan nan nan nan nan nan nan nan nan nan nan nan nan nan nan nan nan nan nan nan nan nan nan nan nan nan nan nan nan nan nan nan nan nan nan nan nan nan nan nan nan nan nan nan nan nan nan nan nan nan nan nan nan nan 243 237 234 233 230 231 231 232 232 231 231 236 236 237 233 234 238 244 243
nan nan nan nan nan nan nan nan nan nan nan nan nan nan nan nan nan nan nan nan nan nan nan nan nan nan nan nan nan nan nan nan 317 nan nan nan nan nan nan nan nan nan nan nan nan nan nan nan nan nan nan nan nan nan nan nan nan nan nan nan nan nan nan nan nan nan nan nan nan nan 233 235 236 235 235 234 229 231 232 233 232 234 236 239 241
nan nan nan nan nan nan nan nan nan nan nan nan nan nan nan nan nan nan nan nan nan nan nan nan nan nan nan nan nan nan nan nan nan nan nan nan nan nan nan nan nan nan nan nan nan nan nan nan nan nan nan nan nan nan nan nan nan nan nan nan nan nan nan nan nan nan nan nan nan nan nan nan nan 237 239 236 233 232 232 232 233 236 237 237 237
nan nan nan nan nan nan nan nan nan nan nan nan nan nan nan nan nan nan nan nan nan nan nan nan nan nan nan nan nan nan nan nan nan nan nan nan nan nan nan nan nan nan nan nan nan nan nan nan nan nan nan nan nan nan nan nan nan nan nan nan nan nan nan nan nan nan nan nan nan nan nan nan nan nan nan nan nan 236 235 235 235 237 237 238 238
nan nan nan nan nan nan nan nan nan nan nan nan nan nan nan nan nan nan nan nan nan nan nan nan nan nan nan nan nan nan nan nan nan nan nan nan nan nan nan nan nan nan nan nan nan nan nan nan nan nan nan nan nan nan nan nan nan nan nan nan nan nan nan nan nan nan nan nan nan nan nan nan nan nan nan nan nan nan nan 237 238 239 238 239 239
nan nan nan nan nan nan nan nan nan nan nan nan nan nan nan nan nan nan nan nan nan nan nan nan nan nan nan nan nan nan nan nan nan nan nan nan nan nan nan nan nan nan nan nan nan nan nan nan nan nan nan nan nan nan nan nan nan nan nan nan nan nan nan nan nan nan nan nan nan nan nan nan nan nan nan nan nan nan nan nan nan 243 243 242 242
nan nan nan nan nan nan nan nan nan nan nan nan nan nan nan nan nan nan nan nan nan nan nan nan nan nan nan nan nan nan nan nan nan nan nan nan nan nan nan nan nan nan nan nan nan nan nan nan nan nan nan nan nan nan nan nan nan nan nan nan nan nan nan nan nan nan nan nan nan 244 nan nan nan nan nan nan nan nan nan nan nan 244 nan nan nan
nan nan nan nan nan nan nan nan nan nan nan nan nan nan nan nan nan nan nan nan nan nan nan nan nan nan nan nan nan nan nan nan nan nan nan nan nan nan nan nan nan nan nan nan nan nan nan nan nan nan nan nan nan nan nan nan nan nan nan nan nan nan nan nan nan nan nan nan nan 241 238 240 nan nan nan nan nan nan nan nan nan nan nan nan nan
nan nan nan nan nan nan nan nan nan nan nan nan nan nan nan nan nan nan nan nan nan nan nan nan nan nan nan nan nan nan nan nan nan nan nan nan nan nan nan nan nan nan nan nan nan nan nan nan nan nan nan nan nan nan 291 nan nan nan nan nan nan nan nan nan nan nan nan nan nan nan nan nan nan nan nan nan nan nan nan nan nan nan nan nan nan
nan nan nan nan nan nan nan nan nan nan nan nan nan nan nan nan nan nan nan nan nan nan nan nan nan nan nan nan nan nan nan nan nan nan nan nan nan nan nan nan nan nan nan nan nan nan nan nan nan nan nan nan nan nan nan 269 nan nan nan nan nan nan nan nan nan nan nan nan nan nan nan nan nan nan nan nan nan nan nan nan nan nan nan nan nan
nan nan nan nan nan nan nan nan nan nan nan nan nan nan nan nan nan nan nan nan nan nan nan nan nan nan nan nan nan nan nan nan nan nan nan nan nan nan nan nan nan nan nan nan nan nan nan nan nan nan nan nan nan nan nan nan nan nan nan nan nan nan nan nan nan nan nan nan nan nan nan nan nan nan nan nan nan nan nan nan nan nan nan nan nan